Regional Weather Roundup
Issued by NWS

Home | Current Version | Previous Version | Graphics & Text | Print | Product List | Glossary On
Versions: 1 2 3 4 5 6 7 8 9 10 11 12 13 14 15 16 17 18 19 20 21 22 23 24 25 26 27 28 29 30 31 32 33 34 35 36 37 38 39 40 41 42 43 44 45 46 47 48 49 50
513
ASUS44 KJAN 060603
RWRMS

MISSISSIPPI HOURLY WEATHER ROUNDUP
NATIONAL WEATHER SERVICE JACKSON MS
1200 AM CST FRI MAR 06 2015

NOTE: "FAIR: INDICATES FEW OR NO CLOUDS BELOW 12,000 FEET WITH NO
SIGNIFICANT WEATHER AND/OR OBSTRUCTIONS TO VISIBILITY.

MSZ001>002-007>008-010>013-018>021-025>028-034>036-060700-
NORTHWEST MISSISSIPPI

CITY           SKY/WX    TMP DP  RH WIND       PRES   REMARKS
CLARKSDALE       N/A     23  19  86 CALM      30.61S
CLEVELAND      FAIR      25  21  85 N7        30.58F WCI  18
GREENWOOD      CLEAR     25  13  60 NE9       30.58R WCI  15
6HR MIN TEMP:  25; 6HR MAX TEMP:  30;

GREENVILLE     CLEAR     27  18  69 MISG      30.58F
6HR MIN TEMP:  25; 6HR MAX TEMP:  32;

OLIVE BRANCH   CLEAR     18  16  93 CALM      30.58F
OXFORD         FAIR      18  10  73 N3        30.57F
TUNICA         CLEAR     23  18  80 N3        30.60F
$$

MSZ003>006-009-014>017-022>024-029>033-037>039-060700-
NORTHEAST MISSISSIPPI

CITY           SKY/WX    TMP DP  RH WIND       PRES   REMARKS
COLUMBUS AFB   CLEAR     24  17  74 N6        30.53S WCI  17
6HR MIN TEMP:  24; 6HR MAX TEMP:  30;

CORINTH        FAIR      21  10  63 N9        30.55F WCI  11
GOLDN TRIANGLE CLEAR     25  16  68 N9        30.51S WCI  15
STARKVILLE     FAIR      25  19  80 CALM      30.53S
TUPELO         CLEAR     23  13  65 NE13      30.54S WCI  11
6HR MIN TEMP:  23; 6HR MAX TEMP:  30;

$$

MSZ040-058-060700-
CENTRAL MISSISSIPPI

CITY           SKY/WX    TMP DP  RH WIND       PRES   REMARKS
JACKSON INTL   PTCLDY    26  16  65 N9        30.52F WCI  17
6HR MIN TEMP:  26; 6HR MAX TEMP:  32;

JACKSON HAWKNS PTCLDY    26  15  63 N7        30.53F WCI  18
6HR MIN TEMP:  26; 6HR MAX TEMP:  31;

MERIDIAN KEY   PTCLDY    26  18  71 N13       30.49F WCI  15
6HR MIN TEMP:  26; 6HR MAX TEMP:  31;

MERIDIAN NAS   PTCLDY    25  19  78 NW6       30.50F WCI  18
6HR MIN TEMP:  25; 6HR MAX TEMP:  30;

VICKSBURG      PTCLDY    28  16  60 NE10      30.57F WCI  19
6HR MIN TEMP:  28; 6HR MAX TEMP:  32;

$$

MSZ059>079-060700-
SOUTH MISSISSIPPI

CITY           SKY/WX    TMP DP  RH WIND       PRES   REMARKS
BROOKHAVEN       N/A     27  23  86 CALM      30.51S
HATTIESBURG    PTCLDY    31  20  63 N9G18     30.49R WCI  23
6HR MIN TEMP:  31; 6HR MAX TEMP:  35;

MCCOMB         PTCLDY    27  17  66 N10       30.49S WCI  17
6HR MIN TEMP:  27; 6HR MAX TEMP:  32;

NATCHEZ        PTCLDY    28  14  54 N9G20     30.53F WCI  20
6HR MIN TEMP:  28; 6HR MAX TEMP:  32;

PINE BELT      PTCLDY    28  19  69 N12       30.47S WCI  18
6HR MIN TEMP:  28; 6HR MAX TEMP:  34;

$$

MSZ080>082-060700-
COASTAL MISSISSIPPI

CITY           SKY/WX    TMP DP  RH WIND       PRES   REMARKS
BILOXI         PTCLDY    33  22  63 N17G23    30.41F WCI  22
6HR MIN TEMP:  33; 6HR MAX TEMP:  38;

PASCAGOULA     PTCLDY    32  23  69 N17G26    30.40F WCI  21
6HR MIN TEMP:  32; 6HR MAX TEMP:  38;

GULFPORT       CLEAR     33  20  58 N16       30.42F WCI  23
6HR MIN TEMP:  33; 6HR MAX TEMP:  38;

$$



USA.gov is the U.S. government's official web portal to all federal, state and local government web resources and services.